Regional Weather Roundup
Issued by NWS

Home | Current Version | Previous Version | Text Only | Print | Product List | Glossary Off
Versions: 1 2 3 4 5 6 7 8 9 10 11 12 13 14 15 16 17 18 19 20 21 22 23 24 25 26 27 28 29 30 31 32 33 34 35 36 37 38 39 40 41 42 43 44 45 46 47 48 49 50

000
ASUS43 KBIS 181410
RWRND

NORTH DAKOTA REGIONAL WEATHER ROUNDUP
NATIONAL WEATHER SERVICE BISMARCK ND
900 AM CDT FRI APR 18 2014

NOTE: "FAIR" INDICATES FEW OR NO CLOUDS BELOW 12,000 FEET WITH NO
SIGNIFICANT WEATHER AND/OR OBSTRUCTIONS TO VISIBILITY.


NDZ001>003-009>011-017-181500-
NORTHWEST NORTH DAKOTA

CITY           SKY/WX    TMP DP  RH WIND       PRES   REMARKS
WILLISTON      PTSUNNY   38  24  57 SE16G23   29.88S
MINOT          CLOUDY    34  20  56 E22G30    30.02F
MINOT AFB      CLOUDY    33  22  63 SE22G31   30.02F
$$

NDZ018>021-031>035-040>046-181500-
SOUTHWEST NORTH DAKOTA

CITY           SKY/WX    TMP DP  RH WIND       PRES   REMARKS
BISMARCK       MOSUNNY   39  22  50 SE22      30.03F
DICKINSON      MOSUNNY   35  25  66 SE20      29.85F
GARRISON         N/A     35  23  61 SE25      29.98F
HETTINGER ARPT MOSUNNY   35  26  69 E16       29.87F
$$

NDZ004>008-012>016-024-026-027-054-181500-
NORTHEAST NORTH DAKOTA

CITY           SKY/WX    TMP DP  RH WIND       PRES   REMARKS
GRAND FORKS    PTSUNNY   37  18  46 SE9       30.26F
GRND FRKS AFB  CLOUDY    36  19  49 SE12      30.25F
DEVILS LAKE    MOSUNNY   34  19  55 SE17      30.18S
$$

NDZ022-023-025-028>030-036>039-047>053-181500-
SOUTHEAST NORTH DAKOTA

CITY           SKY/WX    TMP DP  RH WIND       PRES   REMARKS
FARGO          PTSUNNY   38  25  59 SE12      30.26F
JAMESTOWN      PTSUNNY   36  22  56 SE24G31   30.15F
$$




USA.gov is the U.S. government's official web portal to all federal, state and local government web resources and services.